Location: Brahman Valley
(40.6513°N, 111.8855°W)
Time: 00:53:58
(UTC+00:00)

Explorer 11/Cluster Stage 4 - Visible Passes

Search period start: 12 May 2021 00:00
Search period end: 22 May 2021 00:00
Orbit: 467 x 1257 km, 28.8° (Epoch: 11 May)

Date Brightness Start Highest point End Pass type
(mag) Time Alt. Az. Time Alt. Az. Time Alt. Az.
12 May 8.4 03:54:31 10° SSW 04:00:48 24° SSE 04:03:34 20° SE visible
12 May 8.7 05:42:15 10° WSW 05:45:44 23° SW 05:45:44 23° SW visible
13 May 8.4 03:42:58 10° SW 03:49:29 26° SSE 03:53:42 17° ESE visible
13 May 8.4 05:30:50 10° WSW 05:35:50 29° SSW 05:35:50 29° SSW visible
14 May 8.4 03:31:28 10° SW 03:38:09 28° SSE 03:43:37 14° ESE visible
14 May 8.1 05:19:27 10° WSW 05:25:45 34° SSW 05:25:45 34° SSW visible
15 May 8.4 03:20:03 10° SW 03:26:48 30° SSE 03:33:22 11° ESE visible
15 May 8.0 05:08:07 10° WSW 05:15:22 35° S 05:15:29 35° S visible
15 May 9.5 06:57:26 10° WSW 06:57:37 11° WSW 06:57:37 11° WSW visible
16 May 8.3 03:08:41 10° SW 03:15:28 31° SSE 03:22:26 10° ESE visible
16 May 8.0 04:56:49 10° WSW 05:04:03 35° S 05:05:05 34° S visible
16 May 9.4 06:46:12 10° WSW 06:47:11 13° WSW 06:47:11 13° WSW visible
17 May 8.1 04:45:33 10° WSW 04:52:43 34° S 04:54:34 31° SSE visible
17 May 9.2 06:35:02 10° WSW 06:36:40 15° WSW 06:36:40 15° WSW visible
18 May 8.2 04:34:20 10° WSW 04:41:24 34° S 04:43:58 28° SSE visible
18 May 9.2 06:23:54 10° WSW 06:26:04 16° SW 06:26:04 16° SW visible
19 May 8.3 04:23:09 10° WSW 04:30:04 32° S 04:33:18 25° SSE visible
19 May 9.1 06:12:51 10° WSW 06:15:24 16° SW 06:15:24 16° SW visible
20 May 8.4 04:12:02 10° WSW 04:18:44 31° S 04:22:37 21° SSE visible
20 May 9.1 06:01:53 10° WSW 06:04:43 16° SW 06:04:43 16° SW visible
21 May 8.4 04:00:57 10° WSW 04:07:25 29° SSW 04:11:54 18° SSE visible
21 May 9.1 05:51:03 10° WSW 05:53:59 15° SW 05:53:59 15° SW visible
